{"data":{"norad_id":66481,"intl_designator":"2025-262AB","name":"STARLINK-35698","alt_names":[],"object_type":"PAYLOAD","status":"ACTIVE","operator":null,"country":"US","launch_date":"2025-11-15","launch_site_code":"AFETR","launch_vehicle":null,"mission":null,"orbit_class":"UNKNOWN","rcs_meters":null,"size_class":null,"mass_kg":null,"dimensions":null,"purposes":["comms"],"wikipedia_slug":null,"has_3d_model":false,"image_url":null,"decayed_at":null,"tle_current":{"epoch":"2026-05-24T22:48:33.065280Z","epoch_age_seconds":90079,"freshness":"FRESH","line1":"1 66481U 25262AB  26144.95038270  .00013725  00000+0  50732-3 0  9990","line2":"2 66481  43.0033 225.1222 0001055 251.4376 108.6361 15.27580829 30572","mean_motion":15.27580829,"eccentricity":0.0001055,"inclination_deg":43.0033,"raan_deg":225.1222,"arg_perigee_deg":251.4376,"mean_anomaly_deg":108.6361,"bstar":0.00050732,"rev_number":3057,"period_min":94.266697556205,"perigee_km":482.3227588453,"apogee_km":483.77046858779,"semimajor_km":6861.1836137165,"source":"CELESTRAK","updated_at":"2026-05-25T13:38:21.240506Z"}}}